Home > Weather > Hemer > Past weeks

Flag for Germany Past Weather in Hemer, North Rhine-Westphalia, Germany — Yesterday and Last 2 Weeks

Now
86 °F

Passing clouds.


Feels Like: 84 °F
Forecast: 63 / 85 °F
Wind: 6 mph from Southeast

Location: Dortmund / Wickede

Current Time: Aug 24, 2016 at 2:31:42 PM

Latest Report: Aug 24, 2016 at 1:50 PM


Visibility: N/A

Pressure: 30.18 "Hg

Humidity: 31%

Dew Point: 52 °F

Location of HemerLocation

Past Weather in Hemer — Graph

°F

Hemer Temperature Yesterday

Maximum temperature yesterday: 81 °F (at 3:50 PM)
Minimum temperature yesterday: 57 °F (at 5:20 AM)
Average temperature yesterday: 72 °F

High & Low Weather Summary for the Past Weeks

 TemperatureHumidityPressure
High84 °F (Aug 24, 12:50 PM)94% (Aug 12, 6:20 AM)30.36 "Hg (Aug 12, 6:20 AM)
Low45 °F (Aug 11, 5:20 AM)27% (Aug 17, 3:20 PM)29.80 "Hg (Aug 18, 2:50 PM)
Average64 °F62%30.10 "Hg
* Reported Aug 9 1:20 PM — Aug 24 1:20 PM, Hemer, Weather by CustomWeather, © 2016

Note: Actual official high and low records may vary slightly from our data, if they occured in-between our weather recording intervals... More about our weather records

Advertising

Hemer Weather History for the Previous 24 Hours

Scroll right to see more
 ConditionsComfort  
Time TempWeatherWind HumidityBarometerVisibility
1:20 PM
Wed, Aug 24
84 °FPassing clouds.7 mph31%30.18 "HgN/A
12:50 PM84 °FPassing clouds.7 mph33%30.21 "HgN/A
12:20 PM82 °FPassing clouds.8 mph32%30.21 "HgN/A
11:50 AM82 °FPassing clouds.7 mph37%30.21 "HgN/A
11:20 AM81 °FPassing clouds.8 mph42%30.21 "HgN/A
10:50 AM79 °FPassing clouds.7 mph45%30.21 "HgN/A
10:20 AM77 °FPassing clouds.5 mph44%30.21 "HgN/A
9:50 AM75 °FSunny.2 mph47%30.21 "Hg10 mi
9:20 AM72 °FSunny.2 mph53%30.21 "Hg10 mi
8:50 AM72 °FSunny.2 mph61%30.21 "Hg10 mi
8:20 AM66 °FSunny.2 mph68%30.21 "Hg10 mi
7:50 AM63 °FSunny.2 mph77%30.21 "Hg10 mi
7:20 AM61 °FClear.2 mph77%30.21 "Hg10 mi
6:50 AM59 °FClear.2 mph77%30.21 "Hg10 mi
6:20 AM59 °FClear.3 mph77%30.21 "Hg10 mi
5:50 AM57 °FClear.2 mph82%30.21 "Hg10 mi
5:20 AM61 °FClear.2 mph77%30.21 "Hg10 mi
9:50 PM
Tue, Aug 23
70 °FClear.3 mph57%30.27 "Hg10 mi
9:20 PM68 °FSunny.5 mph60%30.27 "Hg10 mi
8:50 PM73 °FSunny.5 mph50%30.27 "Hg10 mi
8:20 PM75 °FSunny.5 mph47%30.27 "Hg10 mi
7:50 PM77 °FSunny.6 mph42%30.27 "Hg10 mi
7:20 PM79 °FSunny.5 mph39%30.27 "Hg10 mi
6:50 PM81 °FSunny.3 mph34%30.27 "Hg10 mi
6:20 PM81 °FSunny.1 mph32%30.27 "Hg10 mi
5:50 PM81 °FSunny.3 mph32%30.27 "Hg10 mi
5:20 PM81 °FSunny.2 mph32%30.27 "Hg10 mi
4:50 PM81 °FSunny.5 mph32%30.27 "Hg10 mi
4:20 PM81 °FSunny.5 mph32%30.30 "Hg10 mi
3:50 PM81 °FSunny.3 mph32%30.30 "Hg10 mi
3:20 PM79 °FSunny.5 mph32%30.30 "Hg10 mi
2:50 PM79 °FSunny.5 mph34%30.30 "Hg10 mi
2:20 PM79 °FSunny.7 mph32%30.30 "Hg10 mi
Weather by CustomWeather, © 2016

See weather overviewHow to use our weather pages